Regional Weather Roundup
Issued by NWS Green Bay, WI

Home | Current Version | Previous Version | Text Only | Print | Product List | Glossary On
Versions: 1 2 3 4 5 6 7 8 9 10 11 12 13 14 15 16 17 18 19 20 21 22 23 24 25 26 27 28 29 30 31 32 33 34 35 36 37 38 39 40 41 42 43 44 45 46 47 48 49 50
000
ASUS43 KGRB 200959
RWRGRB

NORTH-CENTRAL AND NORTHEAST WISCONSIN REGIONAL WEATHER ROUNDUP
NATIONAL WEATHER SERVICE GREEN BAY WI
500 AM CDT SAT SEP 20 2014

WIZ005-009-010>012-018-019-201100-
NORTH CENTRAL WISCONSIN

CITY           SKY/WX    TMP DP  RH WIND       PRES   REMARKS
IRONWOOD       CLOUDY    66  64  94 SW8       29.57S
MANITOWISH WTR NOT AVBL
ARBOR VITAE    NOT AVBL
EAGLE RIVER    NOT AVBL
LAND O LAKES   NOT AVBL
RHINELANDER    CLOUDY    63  60  90 SW12      29.71R
PHILLIPS       CLOUDY    65  64  96 SW10      29.66S
ANTIGO         NOT AVBL
TOMAHAWK       NOT AVBL
MERRILL        NOT AVBL
$$

WIZ013-073-201100-
NORTHEAST WISCONSIN

CITY           SKY/WX    TMP DP  RH WIND       PRES   REMARKS
IRON MOUNTAIN  CLOUDY    62  57  83 S7        29.64F
MARINETTE      CLOUDY    61  57  88 SW10G16   29.70R
$$

WIZ017-030-035>037-045-201100-
CENTRAL WISCONSIN

CITY           SKY/WX    TMP DP  RH WIND       PRES   REMARKS
MEDFORD        NOT AVBL
WAUSAU         CLOUDY    64  62  93 SW9       29.72R
MOSINEE        CLOUDY    63  63 100 S12G18    29.75S
MARSHFIELD     CLOUDY    66  63  90 SW9       29.73S
WISC RAPIDS    LGT RAIN  65  62  90 SW6       29.77R
STEVENS POINT  NOT AVBL
WAUPACA        NOT AVBL
SHAWANO        DRIZZLE   64  62  91 SW8       29.73R
CLINTONVILLE   CLOUDY    63  61  94 SW8       29.74R
$$

WIZ038-039-048-051-201100-
FOX VALLEY

CITY           SKY/WX    TMP DP  RH WIND       PRES   REMARKS
NWS GREEN BAY  LGT RAIN  62  61  96 SW9G20    29.74F
APPLETON       NOT AVBL
OSHKOSH        LGT RAIN  65  62  90 SW14G22   29.77F
FOND DU LAC    LGT RAIN  63  59  87 SW14      29.81R
$$

WIZ022-050-052-201100-
EAST CENTRAL WISCONSIN

CITY           SKY/WX    TMP DP  RH WIND       PRES   REMARKS
STURGEON BAY   CLOUDY    63  59  88 SW14      29.73F
MANITOWOC      NOT AVBL
SHEBOYGAN      LGT RAIN  64  59  83 W20G26    29.80F
$$

LMZ563-521-522-541>543-201100-
LAKESHORE

STATION/POSITION TIME  TEMP    WIND        PRES    VSBY  WAVE
                       AIR SEA DIR/SP/G                  HT/PER
                 (UTC) (F)     (DEG/KT/KT) (MB)    (MI)  (FT/S)
SHEBOYGAN LKSHOR 0900   68 55  230/ 18/ 26 1009.2R
KEWAUNEE LKSHORE 0900   62     230/  8/ 18 1006.7F
NORTHPORT PIER   0900   60     180/  4/  8 1005.8F
N MID LAKE BUOY  0900   60 58  210/ 21/ 27 1005.4F         8/ 8
S GREEN BAY BUOY 0900   61     VRB 19/ 23  1007.2F
CHAMBERS ISLAND  0900   60     180/  7/ 14 1005.8S
MENOMINEE LKSHOR 0900   62     200/ 12/ 17 1006.5S
$$



USA.gov is the U.S. government's official web portal to all federal, state and local government web resources and services.